Bradford, PA

4:40 AM EDT on October 22, 2019 (GMT -0400)
Bradford Regional

Weather History for KBFD - August, 2019

Change the Weather History Date:

Saturday, August 24, 2019

  Actual Average Record
Temperature  
Mean Temperature 57 °F 63 °F  
Max Temperature 67 °F 75 °F 84 °F (1972)
Min Temperature 46 °F 51 °F 33 °F (1971)
Degree Days  
Heating Degree Days 8 1  
Month to date heating degree days 28 16  
Since 1 June heating degree days 162 225  
Since 1 July heating degree days 40 80  
Cooling Degree Days 0 1  
Month to date cooling degree days 63 45  
Year to date cooling degree days 253 169  
Since 1 June cooling degree days 246 159  
Growing Degree Days 5 (Base 50)    
Moisture  
Dew Point 47 °F    
Average Humidity 69    
Maximum Humidity 93    
Minimum Humidity 44    
Precipitation  
Precipitation 0.00 in 0.13 in 1.31 in (1968)
Month to date precipitation 4.23 3.22  
Year to date precipitation 32.20 29.06  
Sea Level Pressure  
Sea Level Pressure 30.26 in    
Wind  
Wind Speed 4 mph (NNE)    
Max Wind Speed 14 mph    
Max Gust Speed 19 mph    
Visibility 10 miles    
Events      
T = Trace of Precipitation, MM = Missing Value Source: NWS Daily Summary

Daily Weather History Graph

Daily Weather History Graph

Search for Another Location

Airport or City:

Astronomy

Aug. 24, 2019 Rise Set
Actual Time 6:31 AM EDT 8:01 PM EDT
Civil Twilight 6:02 AM EDT 8:30 PM EDT
Nautical Twilight 5:27 AM EDT 9:05 PM EDT
Astronomical Twilight 4:49 AM EDT 9:42 PM EDT
Moon 12:22 AM EDT (8/24) 3:17 PM EDT (8/24)
Length of Visible Light 14h 27m
Length of Day
13h 29m
Last Quarter, 39% of the Moon is Illuminated
Aug 24
Last Quarter
Aug 30
New
Sep 5
First Quarter
Sep 14
Full
Sep 21
Last Quarter

Hourly Weather History & Observations

Time (EDT) Temp. Dew Point Humidity Pressure Visibility Wind Dir Wind Speed Gust Speed Precip Events Conditions
12:53 AM 52.0 °F 48.0 °F 86% 30.21 in 10.0 mi WNW 3.5 mph - N/A   Overcast
1:53 AM 53.1 °F 48.9 °F 86% 30.20 in 10.0 mi Calm Calm - N/A   Overcast
2:53 AM 53.1 °F 48.0 °F 83% 30.20 in 10.0 mi North 3.5 mph - N/A   Overcast
3:53 AM 51.1 °F 46.9 °F 86% 30.21 in 10.0 mi Calm Calm - N/A   Partly Cloudy
4:53 AM 48.9 °F 46.0 °F 90% 30.21 in 10.0 mi Calm Calm - N/A   Clear
5:53 AM 46.9 °F 44.1 °F 90% 30.23 in 10.0 mi Calm Calm - N/A   Clear
6:53 AM 48.0 °F 45.0 °F 89% 30.26 in 10.0 mi Calm Calm - N/A   Overcast
7:53 AM 54.0 °F 48.9 °F 83% 30.27 in 10.0 mi NNE 3.5 mph - N/A   Mostly Cloudy
8:53 AM 57.9 °F 48.9 °F 72% 30.28 in 10.0 mi NNE 4.6 mph - N/A   Mostly Cloudy
9:53 AM 61.0 °F 48.0 °F 62% 30.29 in 10.0 mi ENE 10.4 mph - N/A   Scattered Clouds
10:53 AM 61.0 °F 48.0 °F 62% 30.29 in 10.0 mi NE 9.2 mph - N/A   Overcast
11:53 AM 62.1 °F 45.0 °F 53% 30.29 in 10.0 mi North 8.1 mph - N/A   Overcast
12:53 PM 64.0 °F 45.0 °F 50% 30.27 in 10.0 mi ENE 9.2 mph - N/A   Overcast
1:53 PM 64.0 °F 42.1 °F 45% 30.27 in 10.0 mi NE 12.7 mph 18.4 mph N/A   Mostly Cloudy
2:53 PM 64.9 °F 44.1 °F 47% 30.26 in 10.0 mi NNE 8.1 mph - N/A   Overcast
3:53 PM 64.9 °F 45.0 °F 48% 30.25 in 10.0 mi NE 8.1 mph - N/A   Overcast
4:53 PM 64.9 °F 46.9 °F 52% 30.25 in 10.0 mi NNE 5.8 mph - N/A   Overcast
5:53 PM 64.0 °F 46.9 °F 54% 30.26 in 10.0 mi ENE 6.9 mph - N/A   Overcast
6:53 PM 62.1 °F 48.9 °F 62% 30.27 in 10.0 mi NE 4.6 mph - N/A   Overcast
7:53 PM 60.1 °F 48.9 °F 67% 30.27 in 10.0 mi NE 4.6 mph - N/A   Overcast
8:53 PM 55.0 °F 48.9 °F 80% 30.29 in 10.0 mi NNW 4.6 mph - N/A   Clear
9:53 PM 53.1 °F 48.0 °F 83% 30.30 in 10.0 mi Calm Calm - N/A   Clear
10:53 PM 51.1 °F 46.9 °F 86% 30.30 in 10.0 mi Calm Calm - N/A   Clear
11:53 PM 48.9 °F 46.0 °F 90% 30.30 in 10.0 mi Calm Calm - N/A   Clear